Time,TemperatureF,DewpointF,PressureIn,WindDirection,WindDirectionDegrees,WindSpeedMPH,WindSpeedGustMPH,Humidity,HourlyPrecipIn,Conditions,Clouds,dailyrainin,SoftwareType,DateUTC
2013-10-17 00:19:00,58.3,50.1,29.88,ENE,63,1.0,2.0,74,0.00,,,0.00,VWS V12.07,2013-10-16 22:19:00,
2013-10-17 00:25:00,58.2,49.6,29.88,ENE,63,2.0,3.0,73,0.00,,,0.00,VWS V12.07,2013-10-16 22:25:00,
2013-10-17 00:31:00,58.2,49.6,29.88,ENE,63,0.0,2.0,73,0.00,,,0.00,VWS V12.07,2013-10-16 22:31:00,
2013-10-17 00:36:00,58.0,49.4,29.88,ENE,63,2.0,2.0,73,0.00,,,0.00,VWS V12.07,2013-10-16 22:36:00,
2013-10-17 00:42:00,58.0,49.4,29.88,ENE,64,0.0,3.0,73,0.00,,,0.00,VWS V12.07,2013-10-16 22:42:00,
2013-10-17 00:47:00,57.9,49.3,29.88,ENE,64,0.0,0.0,73,0.00,,,0.00,VWS V12.07,2013-10-16 22:47:00,
2013-10-17 00:52:00,57.7,49.1,29.88,ENE,64,0.0,4.0,73,0.00,,,0.00,VWS V12.07,2013-10-16 22:52:00,
2013-10-17 00:58:00,57.5,49.3,29.89,ENE,65,2.0,3.0,74,0.00,,,0.00,VWS V12.07,2013-10-16 22:58:00,
2013-10-17 01:03:00,57.4,49.2,29.89,ENE,65,4.0,4.0,74,0.00,,,0.00,VWS V12.07,2013-10-16 23:03:00,
2013-10-17 01:08:00,57.2,49.4,29.88,ENE,66,4.0,5.0,75,0.00,,,0.00,VWS V12.07,2013-10-16 23:08:00,
2013-10-17 01:13:00,57.1,48.5,29.88,ENE,78,4.0,7.0,73,0.00,,,0.00,VWS V12.07,2013-10-16 23:13:00,
2013-10-17 01:18:00,57.2,47.1,29.88,East,96,2.0,7.0,69,0.00,,,0.00,VWS V12.07,2013-10-16 23:18:00,
2013-10-17 01:23:00,57.4,46.5,29.88,East,90,4.0,5.0,67,0.00,,,0.00,VWS V12.07,2013-10-16 23:23:00,
2013-10-17 01:28:00,57.2,45.6,29.88,East,92,1.0,5.0,65,0.00,,,0.00,VWS V12.07,2013-10-16 23:28:00,
2013-10-17 01:33:00,57.2,44.3,29.88,East,81,5.0,7.0,62,0.00,,,0.00,VWS V12.07,2013-10-16 23:33:00,
2013-10-17 01:40:00,57.2,43.9,29.88,SE,128,6.0,8.0,61,0.00,,,0.00,VWS V12.07,2013-10-16 23:40:00,
2013-10-17 01:46:00,57.2,43.9,29.88,ESE,117,4.0,9.0,61,0.00,,,0.00,VWS V12.07,2013-10-16 23:46:00,
2013-10-17 01:51:00,57.2,43.9,29.88,ESE,114,4.0,5.0,61,0.00,,,0.00,VWS V12.07,2013-10-16 23:51:00,
2013-10-17 01:56:00,57.2,43.9,29.88,ESE,111,3.0,5.0,61,0.00,,,0.00,VWS V12.07,2013-10-16 23:56:00,
2013-10-17 02:01:00,57.5,44.2,29.88,ESE,111,1.0,1.0,61,0.00,,,0.00,VWS V12.07,2013-10-17 00:01:00,
2013-10-17 02:07:00,57.5,44.2,29.88,East,100,3.0,5.0,61,0.00,,,0.00,VWS V12.07,2013-10-17 00:07:00,
2013-10-17 02:12:00,57.5,44.6,29.89,East,100,2.0,4.0,62,0.00,,,0.00,VWS V12.07,2013-10-17 00:12:00,
2013-10-17 02:17:00,57.5,44.6,29.89,East,98,3.0,4.0,62,0.00,,,0.00,VWS V12.07,2013-10-17 00:17:00,
2013-10-17 02:22:00,57.5,45.0,29.89,East,98,0.0,1.0,63,0.00,,,0.00,VWS V12.07,2013-10-17 00:22:00,
2013-10-17 02:28:00,57.9,46.2,29.89,East,98,0.0,4.0,65,0.00,,,0.00,VWS V12.07,2013-10-17 00:28:00,
2013-10-17 02:33:00,57.9,46.2,29.89,East,98,0.0,3.0,65,0.00,,,0.00,VWS V12.07,2013-10-17 00:33:00,
2013-10-17 02:38:00,57.9,47.0,29.89,East,98,0.0,0.0,67,0.00,,,0.00,VWS V12.07,2013-10-17 00:38:00,
2013-10-17 02:43:00,57.7,46.8,29.89,East,98,2.0,4.0,67,0.00,,,0.00,VWS V12.07,2013-10-17 00:43:00,
2013-10-17 02:48:00,57.7,46.4,29.89,East,96,0.0,4.0,66,0.00,,,0.00,VWS V12.07,2013-10-17 00:48:00,
2013-10-17 02:55:00,57.4,46.9,29.89,East,96,0.0,2.0,68,0.00,,,0.00,VWS V12.07,2013-10-17 00:55:00,
2013-10-17 03:01:00,56.8,47.1,29.89,East,97,1.0,4.0,70,0.00,,,0.00,VWS V12.07,2013-10-17 01:01:00,
2013-10-17 03:06:00,56.2,46.6,29.89,East,96,3.0,6.0,70,0.00,,,0.00,VWS V12.07,2013-10-17 01:06:00,
2013-10-17 03:12:00,55.9,45.9,29.89,East,94,3.0,6.0,69,0.00,,,0.00,VWS V12.07,2013-10-17 01:12:00,
2013-10-17 03:17:00,55.9,45.5,29.89,East,96,4.0,5.0,68,0.00,,,0.00,VWS V12.07,2013-10-17 01:17:00,
2013-10-17 03:23:00,55.9,44.7,29.89,East,96,3.0,4.0,66,0.00,,,0.00,VWS V12.07,2013-10-17 01:23:00,
2013-10-17 03:28:00,55.9,44.7,29.89,East,98,3.0,7.0,66,0.00,,,0.00,VWS V12.07,2013-10-17 01:28:00,
2013-10-17 03:33:00,55.9,44.3,29.89,ENE,70,0.0,5.0,65,0.00,,,0.00,VWS V12.07,2013-10-17 01:33:00,
2013-10-17 03:40:00,56.1,44.1,29.89,ENE,78,2.0,6.0,64,0.00,,,0.00,VWS V12.07,2013-10-17 01:40:00,
2013-10-17 03:46:00,56.1,44.1,29.89,ENE,78,4.0,5.0,64,0.00,,,0.00,VWS V12.07,2013-10-17 01:46:00,
2013-10-17 03:51:00,55.8,43.4,29.89,East,88,4.0,6.0,63,0.00,,,0.00,VWS V12.07,2013-10-17 01:51:00,
2013-10-17 03:57:00,55.8,43.0,29.89,East,98,3.0,9.0,62,0.00,,,0.00,VWS V12.07,2013-10-17 01:57:00,
2013-10-17 04:03:00,55.9,42.2,29.89,ESE,116,3.0,8.0,60,0.00,,,0.00,VWS V12.07,2013-10-17 02:03:00,
2013-10-17 04:10:00,56.1,41.5,29.89,ESE,117,6.0,6.0,58,0.00,,,0.00,VWS V12.07,2013-10-17 02:10:00,
2013-10-17 04:16:00,55.9,41.3,29.89,ESE,114,5.0,7.0,58,0.00,,,0.00,VWS V12.07,2013-10-17 02:16:00,
2013-10-17 04:21:00,55.8,41.3,29.89,SE,126,6.0,7.0,58,0.00,,,0.00,VWS V12.07,2013-10-17 02:21:00,
2013-10-17 04:27:00,55.8,40.8,29.89,ESE,121,4.0,7.0,57,0.00,,,0.00,VWS V12.07,2013-10-17 02:27:00,
2013-10-17 04:32:00,55.9,40.0,29.89,ESE,105,5.0,7.0,55,0.00,,,0.00,VWS V12.07,2013-10-17 02:32:00,
2013-10-17 04:37:00,55.9,40.0,29.89,ESE,116,5.0,9.0,55,0.00,,,0.00,VWS V12.07,2013-10-17 02:37:00,
2013-10-17 04:43:00,56.1,38.7,29.89,ESE,115,4.0,7.0,52,0.00,,,0.00,VWS V12.07,2013-10-17 02:43:00,
2013-10-17 04:48:00,56.2,38.3,29.89,ESE,108,6.0,7.0,51,0.00,,,0.00,VWS V12.07,2013-10-17 02:48:00,
2013-10-17 04:53:00,56.4,38.0,29.89,ESE,110,5.0,6.0,50,0.00,,,0.00,VWS V12.07,2013-10-17 02:53:00,
2013-10-17 04:58:00,56.5,37.1,29.89,ESE,109,5.0,7.0,48,0.00,,,0.00,VWS V12.07,2013-10-17 02:58:00,
2013-10-17 05:03:00,56.8,36.8,29.89,ESE,106,4.0,6.0,47,0.00,,,0.00,VWS V12.07,2013-10-17 03:03:00,
2013-10-17 05:10:00,56.8,36.3,29.89,ESE,109,3.0,6.0,46,0.00,,,0.00,VWS V12.07,2013-10-17 03:10:00,
2013-10-17 05:16:00,56.8,36.3,29.89,East,85,6.0,6.0,46,0.00,,,0.00,VWS V12.07,2013-10-17 03:16:00,
2013-10-17 05:21:00,56.6,36.1,29.89,ESE,113,5.0,8.0,46,0.00,,,0.00,VWS V12.07,2013-10-17 03:21:00,
2013-10-17 05:26:00,56.6,35.5,29.89,ESE,107,1.0,7.0,45,0.00,,,0.00,VWS V12.07,2013-10-17 03:26:00,
2013-10-17 05:31:00,56.5,34.9,29.89,ESE,115,5.0,7.0,44,0.00,,,0.00,VWS V12.07,2013-10-17 03:31:00,
2013-10-17 05:36:00,56.5,35.4,29.89,East,98,4.0,6.0,45,0.00,,,0.00,VWS V12.07,2013-10-17 03:36:00,
2013-10-17 05:41:00,56.5,34.9,29.90,ESE,117,5.0,7.0,44,0.00,,,0.00,VWS V12.07,2013-10-17 03:41:00,
2013-10-17 05:47:00,56.4,34.8,29.90,ESE,122,5.0,7.0,44,0.00,,,0.00,VWS V12.07,2013-10-17 03:47:00,
2013-10-17 05:52:00,56.4,34.8,29.90,ESE,117,3.0,7.0,44,0.00,,,0.00,VWS V12.07,2013-10-17 03:52:00,
2013-10-17 05:57:00,56.5,34.3,29.90,ESE,115,5.0,7.0,43,0.00,,,0.00,VWS V12.07,2013-10-17 03:57:00,
2013-10-17 06:01:00,56.5,33.7,29.90,East,101,3.0,10.0,42,0.00,,,0.00,VWS V12.07,2013-10-17 04:01:00,
2013-10-17 06:02:00,56.5,33.7,29.90,ESE,105,4.0,10.0,42,0.00,,,0.00,VWS V12.07,2013-10-17 04:02:00,
2013-10-17 06:03:00,56.5,33.7,29.90,ESE,116,2.0,10.0,42,0.00,,,0.00,VWS V12.07,2013-10-17 04:03:00,
2013-10-17 06:04:00,56.5,33.7,29.90,ESE,107,3.0,5.0,42,0.00,,,0.00,VWS V12.07,2013-10-17 04:04:00,
2013-10-17 06:05:00,56.5,33.7,29.90,ESE,115,6.0,9.0,42,0.00,,,0.00,VWS V12.07,2013-10-17 04:05:00,
2013-10-17 06:10:00,56.5,32.5,29.90,ESE,105,6.0,6.0,40,0.00,,,0.00,VWS V12.07,2013-10-17 04:10:00,
2013-10-17 06:12:00,56.5,32.5,29.90,ESE,113,5.0,10.0,40,0.00,,,0.00,VWS V12.07,2013-10-17 04:12:00,
2013-10-17 06:17:00,56.8,31.5,29.90,ESE,119,5.0,7.0,38,0.00,,,0.00,VWS V12.07,2013-10-17 04:17:00,
2013-10-17 06:22:00,57.1,30.4,29.90,ESE,111,4.0,7.0,36,0.00,,,0.00,VWS V12.07,2013-10-17 04:22:00,
2013-10-17 06:28:00,57.2,29.8,29.91,ESE,121,4.0,7.0,35,0.00,,,0.00,VWS V12.07,2013-10-17 04:28:00,
2013-10-17 06:33:00,57.2,29.8,29.91,East,99,5.0,10.0,35,0.00,,,0.00,VWS V12.07,2013-10-17 04:33:00,
2013-10-17 06:38:00,56.8,29.5,29.91,ESE,116,9.0,10.0,35,0.00,,,0.00,VWS V12.07,2013-10-17 04:38:00,
2013-10-17 06:44:00,57.1,28.3,29.91,SE,128,4.0,7.0,33,0.00,,,0.00,VWS V12.07,2013-10-17 04:44:00,
2013-10-17 06:49:00,57.1,29.0,29.91,ESE,123,7.0,7.0,34,0.00,,,0.00,VWS V12.07,2013-10-17 04:49:00,
2013-10-17 06:55:00,57.4,27.0,29.90,ESE,115,5.0,6.0,31,0.00,,,0.00,VWS V12.07,2013-10-17 04:55:00,
2013-10-17 07:01:00,57.7,27.3,29.90,ESE,108,5.0,6.0,31,0.00,,,0.00,VWS V12.07,2013-10-17 05:01:00,
2013-10-17 07:06:00,58.0,26.0,29.90,East,94,4.0,7.0,29,0.00,,,0.00,VWS V12.07,2013-10-17 05:06:00,
2013-10-17 07:11:00,58.3,25.4,29.91,ESE,123,7.0,7.0,28,0.00,,,0.00,VWS V12.07,2013-10-17 05:11:00,
2013-10-17 07:16:00,58.3,26.2,29.91,ESE,106,6.0,6.0,29,0.00,,,0.00,VWS V12.07,2013-10-17 05:16:00,
2013-10-17 07:21:00,58.5,25.5,29.91,ESE,109,6.0,7.0,28,0.00,,,0.00,VWS V12.07,2013-10-17 05:21:00,
2013-10-17 07:26:00,58.5,25.5,29.91,ESE,112,3.0,6.0,28,0.00,,,0.00,VWS V12.07,2013-10-17 05:26:00,
2013-10-17 07:31:00,58.5,25.5,29.91,East,91,2.0,7.0,28,0.00,,,0.00,VWS V12.07,2013-10-17 05:31:00,
2013-10-17 07:36:00,58.3,26.2,29.91,ESE,103,3.0,7.0,29,0.00,,,0.00,VWS V12.07,2013-10-17 05:36:00,
2013-10-17 07:41:00,58.3,25.4,29.91,ESE,119,6.0,10.0,28,0.00,,,0.00,VWS V12.07,2013-10-17 05:41:00,
2013-10-17 07:46:00,58.3,25.4,29.91,ESE,121,7.0,9.0,28,0.00,,,0.00,VWS V12.07,2013-10-17 05:46:00,
2013-10-17 07:51:00,58.6,25.6,29.91,East,93,6.0,6.0,28,0.00,,,0.00,VWS V12.07,2013-10-17 05:51:00,
2013-10-17 07:57:00,58.6,25.6,29.92,ESE,106,4.0,9.0,28,0.00,,,0.00,VWS V12.07,2013-10-17 05:57:00,
2013-10-17 08:03:00,58.5,25.5,29.92,East,101,5.0,6.0,28,0.00,,,0.00,VWS V12.07,2013-10-17 06:03:00,
2013-10-17 08:08:00,58.5,26.4,29.92,East,101,2.0,9.0,29,0.00,,,0.00,VWS V12.07,2013-10-17 06:08:00,
2013-10-17 08:13:00,58.5,25.5,29.92,ESE,106,5.0,7.0,28,0.00,,,0.00,VWS V12.07,2013-10-17 06:13:00,
2013-10-17 08:18:00,58.6,25.6,29.92,ESE,117,3.0,7.0,28,0.00,,,0.00,VWS V12.07,2013-10-17 06:18:00,
2013-10-17 08:23:00,58.5,26.4,29.93,SE,128,9.0,9.0,29,0.00,,,0.00,VWS V12.07,2013-10-17 06:23:00,
2013-10-17 08:28:00,58.5,26.4,29.93,SE,126,2.0,11.0,29,0.00,,,0.00,VWS V12.07,2013-10-17 06:28:00,
2013-10-17 08:33:00,58.8,25.8,29.93,ESE,114,6.0,10.0,28,0.00,,,0.00,VWS V12.07,2013-10-17 06:33:00,
2013-10-17 08:38:00,58.9,25.9,29.92,ESE,118,4.0,10.0,28,0.00,,,0.00,VWS V12.07,2013-10-17 06:38:00,
2013-10-17 08:43:00,58.9,25.9,29.92,ESE,104,7.0,9.0,28,0.00,,,0.00,VWS V12.07,2013-10-17 06:43:00,
2013-10-17 08:48:00,59.2,26.1,29.92,ESE,119,6.0,10.0,28,0.00,,,0.00,VWS V12.07,2013-10-17 06:48:00,
2013-10-17 08:55:00,59.7,26.6,29.93,ESE,109,7.0,7.0,28,0.00,,,0.00,VWS V12.07,2013-10-17 06:55:00,
2013-10-17 09:01:00,60.0,26.0,29.93,ESE,123,7.0,9.0,27,0.00,,,0.00,VWS V12.07,2013-10-17 07:01:00,
2013-10-17 09:07:00,60.0,26.8,29.93,ESE,113,5.0,8.0,28,0.00,,,0.00,VWS V12.07,2013-10-17 07:07:00,
2013-10-17 09:12:00,60.1,26.0,29.93,ESE,122,3.0,7.0,27,0.00,,,0.00,VWS V12.07,2013-10-17 07:12:00,
2013-10-17 09:17:00,60.4,25.4,29.93,East,98,4.0,5.0,26,0.00,,,0.00,VWS V12.07,2013-10-17 07:17:00,
2013-10-17 09:23:00,61.2,26.1,29.94,ENE,75,1.0,6.0,26,0.00,,,0.00,VWS V12.07,2013-10-17 07:23:00,
2013-10-17 09:28:00,61.7,26.5,29.94,ENE,76,3.0,4.0,26,0.00,,,0.00,VWS V12.07,2013-10-17 07:28:00,
2013-10-17 09:33:00,61.7,26.5,29.94,ENE,76,3.0,5.0,26,0.00,,,0.00,VWS V12.07,2013-10-17 07:33:00,
2013-10-17 09:38:00,61.9,25.7,29.95,East,87,1.0,6.0,25,0.00,,,0.00,VWS V12.07,2013-10-17 07:38:00,
2013-10-17 09:43:00,62.0,25.8,29.95,East,90,1.0,4.0,25,0.00,,,0.00,VWS V12.07,2013-10-17 07:43:00,
2013-10-17 09:48:00,62.0,25.8,29.95,East,92,2.0,5.0,25,0.00,,,0.00,VWS V12.07,2013-10-17 07:48:00,
2013-10-17 09:55:00,62.2,26.9,29.95,East,101,5.0,5.0,26,0.00,,,0.00,VWS V12.07,2013-10-17 07:55:00,
2013-10-17 10:01:00,62.5,26.2,29.95,East,99,3.0,4.0,25,0.00,,,0.00,VWS V12.07,2013-10-17 08:01:00,
2013-10-17 10:06:00,62.5,27.2,29.95,East,94,0.0,4.0,26,0.00,,,0.00,VWS V12.07,2013-10-17 08:06:00,
2013-10-17 10:11:00,62.8,26.5,29.95,East,94,2.0,3.0,25,0.00,,,0.00,VWS V12.07,2013-10-17 08:11:00,
2013-10-17 10:16:00,63.0,26.6,29.95,East,89,2.0,5.0,25,0.00,,,0.00,VWS V12.07,2013-10-17 08:16:00,
2013-10-17 10:20:00,63.1,26.7,29.95,East,87,2.0,5.0,25,0.00,,,0.00,VWS V12.07,2013-10-17 08:20:00,
2013-10-17 10:25:00,63.1,27.7,29.95,East,87,0.0,4.0,26,0.00,,,0.00,VWS V12.07,2013-10-17 08:25:00,
2013-10-17 10:31:00,63.4,27.0,29.95,East,84,0.0,4.0,25,0.00,,,0.00,VWS V12.07,2013-10-17 08:31:00,
2013-10-17 10:36:00,63.4,27.0,29.95,East,84,1.0,5.0,25,0.00,,,0.00,VWS V12.07,2013-10-17 08:36:00,
2013-10-17 10:42:00,63.8,28.3,29.95,East,84,2.0,3.0,26,0.00,,,0.00,VWS V12.07,2013-10-17 08:42:00,
2013-10-17 10:48:00,64.1,28.5,29.95,East,83,0.0,5.0,26,0.00,,,0.00,VWS V12.07,2013-10-17 08:48:00,
2013-10-17 10:55:00,64.7,29.0,29.96,East,83,3.0,3.0,26,0.00,,,0.00,VWS V12.07,2013-10-17 08:55:00,
2013-10-17 11:01:00,65.2,28.5,29.96,East,83,0.0,0.0,25,0.00,,,0.00,VWS V12.07,2013-10-17 09:01:00,
2013-10-17 11:06:00,65.7,28.0,29.96,East,83,0.0,0.0,24,0.00,,,0.00,VWS V12.07,2013-10-17 09:06:00,
2013-10-17 11:12:00,66.3,29.5,29.96,East,83,0.0,0.0,25,0.00,,,0.00,VWS V12.07,2013-10-17 09:12:00,
2013-10-17 12:23:00,65.4,31.5,29.97,West,281,3.0,3.0,28,0.00,,,0.00,VWS V12.07,2013-10-17 10:23:00,
2013-10-17 12:29:00,65.2,33.0,29.97,West,281,1.0,2.0,30,0.00,,,0.00,VWS V12.07,2013-10-17 10:29:00,
2013-10-17 12:34:00,65.2,34.6,29.97,West,280,2.0,4.0,32,0.00,,,0.00,VWS V12.07,2013-10-17 10:34:00,
2013-10-17 12:40:00,65.4,41.7,29.97,West,268,2.0,4.0,42,0.00,,,0.00,VWS V12.07,2013-10-17 10:40:00,
2013-10-17 12:46:00,65.4,41.1,29.97,West,269,1.0,3.0,41,0.00,,,0.00,VWS V12.07,2013-10-17 10:46:00,
2013-10-17 12:51:00,65.4,42.9,29.97,West,271,1.0,5.0,44,0.00,,,0.00,VWS V12.07,2013-10-17 10:51:00,
2013-10-17 12:57:00,64.7,44.0,29.96,West,272,3.0,5.0,47,0.00,,,0.00,VWS V12.07,2013-10-17 10:57:00,
2013-10-17 13:02:00,64.9,44.8,29.96,West,273,4.0,5.0,48,0.00,,,0.00,VWS V12.07,2013-10-17 11:02:00,
2013-10-17 13:07:00,64.9,44.2,29.96,WSW,247,3.0,6.0,47,0.00,,,0.00,VWS V12.07,2013-10-17 11:07:00,
2013-10-17 13:13:00,65.2,42.8,29.96,WSW,247,4.0,4.0,44,0.00,,,0.00,VWS V12.07,2013-10-17 11:13:00,
2013-10-17 13:18:00,65.4,42.3,29.96,WSW,249,2.0,4.0,43,0.00,,,0.00,VWS V12.07,2013-10-17 11:18:00,
2013-10-17 13:23:00,65.7,45.5,29.96,WSW,249,4.0,5.0,48,0.00,,,0.00,VWS V12.07,2013-10-17 11:23:00,
2013-10-17 13:28:00,65.4,42.9,29.96,WSW,250,2.0,5.0,44,0.00,,,0.00,VWS V12.07,2013-10-17 11:28:00,
2013-10-17 13:34:00,65.5,45.3,29.96,WSW,251,4.0,5.0,48,0.00,,,0.00,VWS V12.07,2013-10-17 11:34:00,
2013-10-17 13:43:00,65.7,43.8,29.96,WSW,252,5.0,5.0,45,0.00,,,0.00,VWS V12.07,2013-10-17 11:43:00,
2013-10-17 13:48:00,65.9,42.2,29.96,WSW,252,2.0,4.0,42,0.00,,,0.00,VWS V12.07,2013-10-17 11:48:00,
2013-10-17 13:53:00,66.0,42.3,29.95,WSW,252,3.0,4.0,42,0.00,,,0.00,VWS V12.07,2013-10-17 11:53:00,
2013-10-17 13:59:00,66.2,40.5,29.95,West,260,1.0,6.0,39,0.00,,,0.00,VWS V12.07,2013-10-17 11:59:00,
2013-10-17 14:04:00,66.5,42.1,29.95,West,260,1.0,2.0,41,0.00,,,0.00,VWS V12.07,2013-10-17 12:04:00,
2013-10-17 14:13:00,67.0,40.6,29.95,West,259,2.0,4.0,38,0.00,,,0.00,VWS V12.07,2013-10-17 12:13:00,
2013-10-17 14:19:00,67.2,39.4,29.95,West,263,6.0,6.0,36,0.00,,,0.00,VWS V12.07,2013-10-17 12:19:00,
2013-10-17 14:28:00,67.0,34.6,29.95,West,263,1.0,5.0,30,0.00,,,0.00,VWS V12.07,2013-10-17 12:28:00,
2013-10-17 14:34:00,67.0,32.0,29.95,West,267,3.0,3.0,27,0.00,,,0.00,VWS V12.07,2013-10-17 12:34:00,
2013-10-17 14:43:00,67.0,37.0,29.95,West,269,3.0,5.0,33,0.00,,,0.00,VWS V12.07,2013-10-17 12:43:00,
2013-10-17 14:48:00,67.2,37.2,29.95,West,265,4.0,4.0,33,0.00,,,0.00,VWS V12.07,2013-10-17 12:48:00,
2013-10-17 14:53:00,67.3,35.7,29.96,West,266,6.0,6.0,31,0.00,,,0.00,VWS V12.07,2013-10-17 12:53:00,
2013-10-17 14:58:00,67.3,35.7,29.96,West,270,4.0,7.0,31,0.00,,,0.00,VWS V12.07,2013-10-17 12:58:00,
2013-10-17 15:04:00,67.7,35.2,29.96,WNW,286,4.0,6.0,30,0.00,,,0.00,VWS V12.07,2013-10-17 13:04:00,
2013-10-17 15:12:00,67.2,35.6,29.97,WNW,283,0.0,6.0,31,0.00,,,0.00,VWS V12.07,2013-10-17 13:12:00,
2013-10-17 15:18:00,67.5,34.2,29.97,WNW,288,6.0,7.0,29,0.00,,,0.00,VWS V12.07,2013-10-17 13:18:00,
2013-10-17 15:27:00,66.7,32.6,29.97,WNW,290,3.0,10.0,28,0.00,,,0.00,VWS V12.07,2013-10-17 13:27:00,
2013-10-17 15:33:00,66.7,31.7,29.97,WNW,291,4.0,6.0,27,0.00,,,0.00,VWS V12.07,2013-10-17 13:33:00,
2013-10-17 15:38:00,66.5,32.4,29.97,WNW,292,1.0,5.0,28,0.00,,,0.00,VWS V12.07,2013-10-17 13:38:00,
2013-10-17 15:43:00,67.0,32.8,29.97,West,279,4.0,6.0,28,0.00,,,0.00,VWS V12.07,2013-10-17 13:43:00,
2013-10-17 15:49:00,67.0,36.2,29.97,West,272,0.0,0.0,32,0.00,,,0.00,VWS V12.07,2013-10-17 13:49:00,
2013-10-17 15:57:00,67.2,38.7,29.97,West,275,3.0,7.0,35,0.00,,,0.00,VWS V12.07,2013-10-17 13:57:00,
2013-10-17 16:02:00,67.0,38.5,29.97,West,275,4.0,9.0,35,0.00,,,0.00,VWS V12.07,2013-10-17 14:02:00,
2013-10-17 16:07:00,67.0,37.7,29.97,West,273,2.0,5.0,34,0.00,,,0.00,VWS V12.07,2013-10-17 14:07:00,
2013-10-17 16:12:00,66.5,36.5,29.97,West,273,1.0,5.0,33,0.00,,,0.00,VWS V12.07,2013-10-17 14:12:00,
2013-10-17 16:18:00,66.7,36.7,29.97,WNW,283,5.0,7.0,33,0.00,,,0.00,VWS V12.07,2013-10-17 14:18:00,
2013-10-17 16:23:00,67.0,36.2,29.97,NW,312,5.0,6.0,32,0.00,,,0.00,VWS V12.07,2013-10-17 14:23:00,
2013-10-17 16:29:00,67.3,34.8,29.97,WNW,298,6.0,6.0,30,0.00,,,0.00,VWS V12.07,2013-10-17 14:29:00,
2013-10-17 16:34:00,66.5,32.4,29.97,WNW,293,4.0,4.0,28,0.00,,,0.00,VWS V12.07,2013-10-17 14:34:00,
2013-10-17 16:42:00,67.0,34.6,29.97,WNW,293,4.0,5.0,30,0.00,,,0.00,VWS V12.07,2013-10-17 14:42:00,
2013-10-17 16:48:00,66.5,34.1,29.97,WNW,294,5.0,5.0,30,0.00,,,0.00,VWS V12.07,2013-10-17 14:48:00,
2013-10-17 16:53:00,66.3,34.8,29.97,WNW,290,1.0,5.0,31,0.00,,,0.00,VWS V12.07,2013-10-17 14:53:00,
2013-10-17 16:59:00,66.8,35.2,29.97,WNW,290,0.0,0.0,31,0.00,,,0.00,VWS V12.07,2013-10-17 14:59:00,
2013-10-17 17:04:00,66.8,35.2,29.97,WNW,289,1.0,2.0,31,0.00,,,0.00,VWS V12.07,2013-10-17 15:04:00,
2013-10-17 17:12:00,67.5,35.8,29.96,WNW,289,1.0,2.0,31,0.00,,,0.00,VWS V12.07,2013-10-17 15:12:00,
2013-10-17 17:18:00,68.0,36.3,29.96,WNW,289,0.0,3.0,31,0.00,,,0.00,VWS V12.07,2013-10-17 15:18:00,
2013-10-17 17:27:00,68.2,35.6,29.96,WNW,295,2.0,3.0,30,0.00,,,0.00,VWS V12.07,2013-10-17 15:27:00,
2013-10-17 17:33:00,67.7,40.5,29.96,WNW,294,5.0,5.0,37,0.00,,,0.00,VWS V12.07,2013-10-17 15:33:00,
2013-10-17 17:42:00,64.6,48.6,29.97,West,279,2.0,6.0,56,0.00,,,0.00,VWS V12.07,2013-10-17 15:42:00,
2013-10-17 17:48:00,64.1,51.3,29.97,West,277,2.0,5.0,63,0.00,,,0.00,VWS V12.07,2013-10-17 15:48:00,
2013-10-17 17:57:00,63.1,53.2,29.97,West,279,3.0,6.0,70,0.00,,,0.00,VWS V12.07,2013-10-17 15:57:00,
2013-10-17 18:02:00,62.2,53.8,29.97,West,279,1.0,5.0,74,0.00,,,0.00,VWS V12.07,2013-10-17 16:02:00,
2013-10-17 18:07:00,61.7,54.1,29.97,West,275,1.0,5.0,76,0.00,,,0.00,VWS V12.07,2013-10-17 16:07:00,
2013-10-17 18:12:00,61.5,54.2,29.97,West,275,1.0,3.0,77,0.00,,,0.00,VWS V12.07,2013-10-17 16:12:00,
2013-10-17 18:18:00,61.4,54.5,29.97,West,275,0.0,1.0,78,0.00,,,0.00,VWS V12.07,2013-10-17 16:18:00,
2013-10-17 18:23:00,60.9,54.0,29.97,West,275,0.0,0.0,78,0.00,,,0.00,VWS V12.07,2013-10-17 16:23:00,
2013-10-17 18:29:00,60.6,54.1,29.97,West,275,0.0,0.0,79,0.00,,,0.00,VWS V12.07,2013-10-17 16:29:00,
2013-10-17 18:34:00,60.4,53.9,29.97,West,275,0.0,0.0,79,0.00,,,0.00,VWS V12.07,2013-10-17 16:34:00,
2013-10-17 18:42:00,60.3,53.8,29.98,West,275,0.0,0.0,79,0.00,,,0.00,VWS V12.07,2013-10-17 16:42:00,
2013-10-17 18:48:00,60.3,53.8,29.98,West,275,0.0,0.0,79,0.00,,,0.00,VWS V12.07,2013-10-17 16:48:00,
2013-10-17 18:53:00,60.3,53.8,29.98,West,275,4.0,4.0,79,0.00,,,0.00,VWS V12.07,2013-10-17 16:53:00,
2013-10-17 18:58:00,60.0,53.1,29.98,West,259,2.0,3.0,78,0.00,,,0.00,VWS V12.07,2013-10-17 16:58:00,
2013-10-17 19:04:00,60.0,51.7,29.98,WSW,256,2.0,2.0,74,0.00,,,0.00,VWS V12.07,2013-10-17 17:04:00,
2013-10-17 19:12:00,60.4,49.4,29.98,WSW,256,0.0,0.0,67,0.00,,,0.00,VWS V12.07,2013-10-17 17:12:00,
2013-10-17 19:18:00,60.6,47.5,29.98,WSW,256,0.0,0.0,62,0.00,,,0.00,VWS V12.07,2013-10-17 17:18:00,
2013-10-17 19:27:00,61.2,48.9,29.99,WSW,256,0.0,0.0,64,0.00,,,0.00,VWS V12.07,2013-10-17 17:27:00,
2013-10-17 19:33:00,61.2,50.6,29.99,WSW,256,0.0,0.0,68,0.00,,,0.00,VWS V12.07,2013-10-17 17:33:00,
2013-10-17 19:38:00,60.9,50.3,29.99,WSW,256,0.0,0.0,68,0.00,,,0.00,VWS V12.07,2013-10-17 17:38:00,
2013-10-17 19:43:00,60.4,48.2,29.99,WSW,256,0.0,2.0,64,0.00,,,0.00,VWS V12.07,2013-10-17 17:43:00,
2013-10-17 19:48:00,60.1,47.5,29.99,SE,124,1.0,6.0,63,0.00,,,0.00,VWS V12.07,2013-10-17 17:48:00,
2013-10-17 19:53:00,60.1,47.0,30.00,SE,124,0.0,2.0,62,0.00,,,0.00,VWS V12.07,2013-10-17 17:53:00,
2013-10-17 19:59:00,60.3,46.8,30.00,ESE,123,2.0,2.0,61,0.00,,,0.00,VWS V12.07,2013-10-17 17:59:00,
2013-10-17 20:04:00,60.4,45.6,30.00,ESE,121,0.0,1.0,58,0.00,,,0.00,VWS V12.07,2013-10-17 18:04:00,
2013-10-17 20:13:00,60.3,45.5,29.99,ESE,117,3.0,6.0,58,0.00,,,0.00,VWS V12.07,2013-10-17 18:13:00,
2013-10-17 20:19:00,59.8,45.0,29.99,ESE,115,5.0,5.0,58,0.00,,,0.00,VWS V12.07,2013-10-17 18:19:00,
2013-10-17 20:26:00,59.7,44.9,29.99,ESE,116,6.0,6.0,58,0.00,,,0.00,VWS V12.07,2013-10-17 18:26:00,
2013-10-17 20:31:00,59.8,45.0,29.99,ESE,116,4.0,6.0,58,0.00,,,0.00,VWS V12.07,2013-10-17 18:31:00,
2013-10-17 20:37:00,59.8,45.0,29.99,ESE,113,4.0,6.0,58,0.00,,,0.00,VWS V12.07,2013-10-17 18:37:00,
2013-10-17 20:43:00,59.7,45.4,29.99,ESE,114,3.0,7.0,59,0.00,,,0.00,VWS V12.07,2013-10-17 18:43:00,
2013-10-17 20:48:00,59.8,45.5,29.99,ESE,114,3.0,3.0,59,0.00,,,0.00,VWS V12.07,2013-10-17 18:48:00,
2013-10-17 20:53:00,60.0,45.7,30.00,ESE,114,2.0,5.0,59,0.00,,,0.00,VWS V12.07,2013-10-17 18:53:00,
2013-10-17 20:59:00,60.0,45.7,30.00,ESE,114,0.0,1.0,59,0.00,,,0.00,VWS V12.07,2013-10-17 18:59:00,
2013-10-17 21:04:00,59.8,45.5,30.00,ESE,114,2.0,2.0,59,0.00,,,0.00,VWS V12.07,2013-10-17 19:04:00,
2013-10-17 21:12:00,60.0,45.7,30.00,ESE,114,0.0,4.0,59,0.00,,,0.00,VWS V12.07,2013-10-17 19:12:00,
2013-10-17 21:18:00,60.0,45.2,30.00,ESE,114,1.0,3.0,58,0.00,,,0.00,VWS V12.07,2013-10-17 19:18:00,
2013-10-17 21:23:00,60.0,44.7,30.00,ESE,114,2.0,4.0,57,0.00,,,0.00,VWS V12.07,2013-10-17 19:23:00,
2013-10-17 21:28:00,60.0,45.2,30.00,ESE,114,2.0,3.0,58,0.00,,,0.00,VWS V12.07,2013-10-17 19:28:00,
2013-10-17 21:33:00,60.1,44.8,30.00,ESE,115,2.0,5.0,57,0.00,,,0.00,VWS V12.07,2013-10-17 19:33:00,
2013-10-17 21:36:00,60.3,45.5,30.00,ESE,115,0.0,4.0,58,0.00,,,0.00,VWS V12.07,2013-10-17 19:36:00,
2013-10-17 21:41:00,60.3,46.8,30.00,ESE,115,6.0,7.0,61,0.00,,,0.00,VWS V12.07,2013-10-17 19:41:00,
2013-10-17 21:47:00,60.0,47.0,30.00,ESE,117,7.0,7.0,62,0.00,,,0.00,VWS V12.07,2013-10-17 19:47:00,
2013-10-17 21:52:00,60.3,47.2,30.00,ESE,117,1.0,7.0,62,0.00,,,0.00,VWS V12.07,2013-10-17 19:52:00,
2013-10-17 21:57:00,60.3,47.2,30.00,ESE,118,3.0,5.0,62,0.00,,,0.00,VWS V12.07,2013-10-17 19:57:00,
2013-10-17 22:03:00,60.3,46.4,30.00,ESE,117,2.0,4.0,60,0.00,,,0.00,VWS V12.07,2013-10-17 20:03:00,
2013-10-17 22:08:00,60.4,45.1,30.00,ESE,118,3.0,4.0,57,0.00,,,0.00,VWS V12.07,2013-10-17 20:08:00,
2013-10-17 22:13:00,60.8,44.5,30.00,ESE,117,3.0,4.0,55,0.00,,,0.00,VWS V12.07,2013-10-17 20:13:00,
2013-10-17 22:19:00,60.8,43.1,30.00,ESE,117,4.0,5.0,52,0.00,,,0.00,VWS V12.07,2013-10-17 20:19:00,
2013-10-17 22:26:00,61.1,42.3,30.00,ESE,117,2.0,2.0,50,0.00,,,0.00,VWS V12.07,2013-10-17 20:26:00,
2013-10-17 22:32:00,61.2,42.4,30.00,ESE,117,0.0,3.0,50,0.00,,,0.00,VWS V12.07,2013-10-17 20:32:00,
2013-10-17 22:37:00,61.4,44.6,30.00,ESE,118,0.0,0.0,54,0.00,,,0.00,VWS V12.07,2013-10-17 20:37:00,
2013-10-17 22:42:00,61.2,45.4,30.00,ESE,117,0.0,0.0,56,0.00,,,0.00,VWS V12.07,2013-10-17 20:42:00,
2013-10-17 22:48:00,61.2,45.9,30.00,ESE,117,0.0,0.0,57,0.00,,,0.00,VWS V12.07,2013-10-17 20:48:00,
2013-10-17 22:53:00,61.2,45.9,30.00,ESE,117,0.0,0.0,57,0.00,,,0.00,VWS V12.07,2013-10-17 20:53:00,
2013-10-17 22:58:00,61.1,46.2,30.00,ESE,117,0.0,0.0,58,0.00,,,0.00,VWS V12.07,2013-10-17 20:58:00,
2013-10-17 23:04:00,60.9,47.8,30.00,ESE,117,0.0,0.0,62,0.00,,,0.00,VWS V12.07,2013-10-17 21:04:00,
2013-10-17 23:12:00,60.6,47.1,30.00,ESE,118,0.0,0.0,61,0.00,,,0.00,VWS V12.07,2013-10-17 21:12:00,
2013-10-17 23:17:00,60.4,47.3,30.00,ESE,118,0.0,0.0,62,0.00,,,0.00,VWS V12.07,2013-10-17 21:17:00,
2013-10-17 23:22:00,60.1,47.0,30.00,ESE,117,0.0,1.0,62,0.00,,,0.00,VWS V12.07,2013-10-17 21:22:00,
2013-10-17 23:28:00,60.0,43.8,30.00,ESE,117,1.0,3.0,55,0.00,,,0.00,VWS V12.07,2013-10-17 21:28:00,
2013-10-17 23:33:00,60.1,41.9,30.00,ESE,117,1.0,3.0,51,0.00,,,0.00,VWS V12.07,2013-10-17 21:33:00,
2013-10-17 23:38:00,60.3,44.6,30.00,ESE,117,0.0,1.0,56,0.00,,,0.00,VWS V12.07,2013-10-17 21:38:00,
2013-10-17 23:44:00,60.0,43.3,30.00,ESE,117,0.0,0.0,54,0.00,,,0.00,VWS V12.07,2013-10-17 21:44:00,
2013-10-17 23:50:00,59.7,42.6,30.00,ESE,117,2.0,3.0,53,0.00,,,0.00,VWS V12.07,2013-10-17 21:50:00,
2013-10-17 23:55:00,59.5,42.4,30.00,ESE,118,3.0,4.0,53,0.00,,,0.00,VWS V12.07,2013-10-17 21:55:00,